Simultaneous Nadir Overpasses (SNOs) Predictions

Prediction of SNOs between NOAA-21 and NOAA-19 Satellite Orbit:

Table of predicted SNOs for the next 14.0 days since TLE Epoch: 8/30/2024
Index Date (NOAA-21) Time (NOAA-21) Lat,Lon (NOAA-21) SZA (NOAA-21 ) Date (NOAA-19) Time (NOAA-19) Lat,Lon (NOAA-19) SZA (NOAA-19 ) Distance(km) Time Diff (sec)
1 09/02/2024 07:49:26 -72.20,-124.48 115.45 09/02/2024 07:48:17 -72.20,-126.57 115.33 71.05 69
2 09/02/2024 08:40:18 72.51, 42.21 64.90 09/02/2024 08:39:06 72.50, 41.32 64.95 29.68 72
3 09/02/2024 09:31:06 -72.71,-150.89 114.87 09/02/2024 09:30:04 -72.73,-150.94 114.83 2.98 62
4 09/02/2024 10:21:52 72.72, 16.40 65.16 09/02/2024 10:20:59 72.73, 16.33 65.19 2.77 53
5 09/02/2024 11:12:37 -72.77,-176.39 114.78 09/02/2024 11:12:01 -72.77,-176.36 114.78 1.01 36
6 09/02/2024 12:03:23 72.78, -9.10 65.25 09/02/2024 12:02:56 72.77, -9.09 65.24 1.61 27
7 09/02/2024 12:54:07 -72.78, 158.22 114.74 09/02/2024 12:53:58 -72.80, 158.22 114.72 2.07 9
8 09/02/2024 13:44:53 72.79, -34.49 65.28 09/02/2024 13:44:53 72.80, -34.51 65.29 1.17 0
9 09/02/2024 14:35:38 -72.84, 132.72 114.65 09/02/2024 14:35:55 -72.83, 132.80 114.67 2.76 17
10 09/02/2024 15:26:24 72.85, -59.99 65.37 09/02/2024 15:26:50 72.83, -59.93 65.35 2.88 26
11 09/02/2024 16:17:08 -72.85, 107.33 114.62 09/02/2024 16:17:52 -72.86, 107.39 114.62 2.46 44
12 09/02/2024 17:07:54 72.86, -85.38 65.41 09/02/2024 17:08:47 72.86, -85.35 65.40 1.16 53
13 09/02/2024 17:58:38 -72.86, 81.94 114.59 09/02/2024 17:59:50 -72.84, 81.86 114.60 2.89 72
14 09/02/2024 18:49:29 73.12,-111.31 65.72 09/02/2024 18:50:41 73.04,-110.43 65.59 29.80 72



Historial Predications of SNOs between NOAA-21 and NOAA-19
